INNOSAT-2 (43738 NORAD) Tracking and Keplerian Element Data

This shows tracking and keplerian element data for the satellite.

Feedback or suggestion? Click here.




ElementValue
Catalog43738
NameINNOSAT-2
Epoch Orbit22295
Epoch Day325.18561718
Epoch Year2022
RAAN59.9002
Inclination97.3482
Eccentricity0.0008484
Argument of Perigee233.0321
Mean Anonmoly214.7955
Mean Motion15.90486551
Decay Rate0.00491228
L11 43738U 18096V 22325.18561718 .00491228 94034-4 16107-2 0 9997
L22 43738 97.3482 59.9002 0008484 233.0321 214.7955 15.90486551222950



Live tracking and technical data element details for INNOSAT-2 (NORAD 43738). INNOSAT-2 can be tracked NOW for your location showing map with azimuth and elevation plus other details from your city location.







IsCatalogInMostPopularTable: catalog: 43738, numindb: 403
Update: records affected: 1



GetName: 43738 INNOSAT-2

Hit Count: updated at: Thu, 15 May 2025 20:03:25 GMT